Regional Weather Roundup
Issued by NWS

Home | Current Version | Previous Version | Text Only | Print | Product List | Glossary Off
Versions: 1 2 3 4 5 6 7 8 9 10 11 12 13 14 15 16 17 18 19 20 21 22 23 24 25 26 27 28 29 30 31 32 33 34 35 36 37 38 39 40 41 42 43 44 45 46 47 48 49 50

102
ASUS43 KLOT 270104
RWRIL

ILLINOIS REGIONAL WEATHER ROUNDUP
NATIONAL WEATHER SERVICE CHICAGO/ROMEOVILLE IL
800 PM CDT FRI MAY 26 2017

NOTE: "FAIR" INDICATES FEW OR NO CLOUDS BELOW 12,000 FEET WITH NO
SIGNIFICANT WEATHER AND/OR OBSTRUCTIONS TO VISIBILITY.

* THESE STATIONS ARE NOT UNDER NWS QUALITY CONTROL. THEY ALSO MAY NOT
  REPORT WEATHER SUCH AS PRECIPITATION OR FOG.

ILZ001-002-007-009-015-016-024-270200-
NORTHWEST ILLINOIS

CITY           SKY/WX    TMP DP  RH WIND       PRES   REMARKS
MOLINE         CLOUDY    66  60  81 VRB3      29.80R
SAVANNA*       CLOUDY    63  59  87 N6        29.84R
$$

ILZ003-004-008-010-011-017-018-270200-
NORTH CENTRAL ILLINOIS

CITY           SKY/WX    TMP DP  RH WIND       PRES   REMARKS
ROCKFORD       CLOUDY    60  56  86 E7        29.83R
FREEPORT*      CLOUDY    59  56  91 NE5       29.85R
ROCHELLE*      CLOUDY    59  57  92 E13       29.82R
DE KALB*       CLOUDY    57  55  94 E12G18    29.84R
PERU*          CLOUDY    62  59  90 NE13      29.80R
$$

ILZ005-006-012>014-019>023-270200-
NORTHEAST ILLINOIS

CITY           SKY/WX    TMP DP  RH WIND       PRES   REMARKS
CHICAGO-OHARE  LGT RAIN  56  53  90 NE10      29.83R
CHICAGO-MIDWAY DRIZZLE   59  56  89 NE14      29.81S
AURORA         CLOUDY    59  57  93 NE10      29.82R
LANSING*       CLOUDY    57  56  94 NE8       29.82S
JOLIET*        CLOUDY    61  58  90 NE10      29.81S
WAUKEGAN       LGT RAIN  55  54  96 NE6       29.83F FOG
DUPAGE AIRPORT CLOUDY    56  56 100 NE14      29.82R
KANKAKEE*      CLOUDY    65  64  96 CALM      29.79S
WHEELING       LGT RAIN  54  54 100 NE7       29.85R FOG
MORRIS*        CLOUDY    62  59  89 CALM      29.79R
ROMEOVILLE*    CLOUDY    58  58  99 N5        29.83R
$$

LMZ740>746-270200-
SOUTHERN LAKE MICHIGAN

STATION/POSITION SKY/WX   TEMP    WIND        PRES    VSBY  WAVE
                          AIR SEA DIR/SP/G                  HT/PER
                          (F)     (DEG/KT/KT) (MB)    (MI)  (FT/S)
SOUTHERN BUOY              49 47   30/  6/  8 1010.7          1
WILMETTE HARBOR            49 51                N/A           1/ 3
HARRISON CRIB              54      30/ 14/ 16   N/A
BURNHAM HARBOR             54      10/ 10/ 13   N/A
CALUMET HARBOR             54      30/  9/ 15 1009.4F
BURNS HARBOR               57      60/ 18/ 23 1010.5R
MICHIGAN CITY              54      30/ 18/ 19   N/A
MICHIGAN CITY 6N           54 53   50/ 14/ 17   N/A           2/ 3
ST. JOSEPH                 56 56   60/ 10/ 14 1011.1R         2/ 3
$$

ILZ025>027-034>036-040-047-049-050-058-095>099-270200-
WEST-CENTRAL ILLINOIS

CITY           SKY/WX    TMP DP  RH WIND       PRES   REMARKS
QUINCY         CLEAR     74  66  76 N6        29.78R
GALESBURG*     MOCLDY    68  63  82 NW7       29.79R
MACOMB*        CLEAR     70  64  79 N6        29.81R
JACKSONVILLE*  MOCLDY    73  68  83 N7        29.77R
PITTSFIELD*    PTCLDY    74  69  82 N6        29.79R
$$

ILZ028>032-037-038-041>044-048-051>054-059>061-270200-
CENTRAL ILLINOIS

CITY           SKY/WX    TMP DP  RH WIND       PRES   REMARKS
PONTIAC        PTCLDY    69  68  98 E5        29.79R
BLOOMINGTON    CLOUDY    68  64  87 NE7       29.79R
DECATUR        CLOUDY    75  65  70 SW12      29.76R
PEORIA         CLEAR     71  66  84 NW3       29.78R
LACON*         CLOUDY    68  65  90 N7        29.78R
LINCOLN*       MOCLDY    75  67  76 N3        29.76R
SPRINGFIELD    CLOUDY    77  68  73 N6        29.76R
TAYLORVILLE    PTCLDY    73  66  78 S12       29.77S
$$

ILZ033-039-045-046-055>057-062-063-270200-
EAST-CENTRAL ILLINOIS

CITY           SKY/WX    TMP DP  RH WIND       PRES   REMARKS
CHAMPAIGN      CLOUDY    73  65  75 SW9       29.77R
RANTOUL*       LGT RAIN  67  66  96 SE6       29.76F
MATTOON        CLOUDY    73  66  78 S8        29.78R
PARIS*         DRIZZLE   71  65  79 S6        29.79S
$$

ILZ079-100>102-270200-
SOUTHWEST ILLINOIS

CITY           SKY/WX    TMP DP  RH WIND       PRES   REMARKS
ALTON          CLOUDY    73  66  78 S6        29.78R
BELLEVILLE     PTCLDY    73  67  80 SW8       29.79R
CAHOKIA*       PTCLDY    77  66  68 S5        29.77R
SPARTA*        CLOUDY    73  66  79 S7        29.81S
$$

ILZ064>066-069>071-074>076-080>082-084>086-088>090-092>094-270200-
SOUTH-CENTRAL ILLINOIS

CITY           SKY/WX    TMP DP  RH WIND       PRES   REMARKS
CARBONDALE     CLOUDY    72  68  87 S12       29.82R
CAIRO*         CLOUDY    71  70  96 CALM      29.85R
EFFINGHAM*     CLOUDY    73  67  80 S9        29.80R
MARION         CLOUDY    72  72 100 SW8       29.83S
MT. VERNON       N/A     74  66  76 SW12G22   29.80S
CENTRALIA*     CLOUDY    74  67  81 SW9       29.79R
SALEM*         MOCLDY    74  66  75 SW12      29.79S
$$

ILZ067-068-072-073-078-083-087-091-270200-
SOUTHEAST ILLINOIS

CITY           SKY/WX    TMP DP  RH WIND       PRES   REMARKS
LAWRENCEVILLE  CLOUDY    77  64  64 SW15G24   29.79R
FLORA*         CLOUDY    76  66  71 SW12      29.79S
FAIRFIELD*     CLOUDY    75  65  71 SW6       29.79S
HARRISBURG*    CLOUDY    72  68  87 S7        29.84R
ROBINSON*      CLOUDY    75  63  64 SW8       29.79R
CARMI*         CLOUDY    75  66  74 SW17      29.81S
$$

ABBREVIATIONS USED IN REMARKS
   TC - TEMPERATURE IN CELSIUS
  WCI - WIND CHILL INDEX
   HX - HEAT INDEX
  VSB - VISIBILITY
$$





USA.gov is the U.S. government's official web portal to all federal, state and local government web resources and services.